Location: Arrien
(43.3167°N, 0.1500°W)
Time: 16:00:29
(UTC+00:00)

Cosmos 1544 Rocket - Pass Details

Date: 30 May 2022
Orbit: 603 x 631 km, 82.5° (Epoch: 29 June)

Event Time Altitude Azimuth Distance (km) Brightness Sun altitude
Rises 00:34:13 0° 2° (N) 2,908 8.4 -24.4°
Reaches altitude 10° 00:36:44 10° 14° (NNE) 1,992 7.2 -24.3°
Maximum altitude 00:40:33 28° 74° (ENE) 1,155 5.1 -24.2°
Enters shadow 00:41:44 25° 102° (ESE) 1,257 5.1 -24.2°
